Time_in_sec,Mx,My,Mz
1314362447.91767478,0.27313939,0.99237210,-0.64834964
1314362447.96847463,0.27488452,0.99235910,-0.64892006
1314362448.02047896,0.27162802,0.99014807,-0.65325296
1314362448.07001257,0.27288282,0.99099642,-0.65050203
1314362448.12143278,0.27086174,0.98808533,-0.65032828
1314362448.16960216,0.27277380,0.98844695,-0.65035492
1314362448.22145271,0.27174601,0.98951375,-0.65364408
1314362448.26951671,0.27678928,0.99045575,-0.65161502
1314362448.32164335,0.27183554,0.98756272,-0.65013397
1314362448.36946940,0.27639559,0.99315464,-0.65326893
1314362448.42071104,0.26985422,0.98670524,-0.65131575
1314362448.46849918,0.27651054,0.99198711,-0.65150839
1314362448.52051616,0.27098379,0.98785681,-0.65287018
1314362448.56951666,0.27405208,0.99226767,-0.65138382
1314362448.62051392,0.27075997,0.98769832,-0.64979428
1314362448.66849399,0.27462986,0.98869199,-0.65132368
1314362448.72163105,0.27253976,0.98935801,-0.65185195
1314362448.77206349,0.27496478,0.98941630,-0.64795363
1314362448.82167315,0.27196380,0.98962402,-0.65228993
1314362448.86949563,0.27628869,0.99055535,-0.64855707
1314362448.92066169,0.27305776,0.98841727,-0.64792192
1314362448.96866846,0.27604657,0.99248624,-0.65006220
1314362449.02144527,0.27279016,0.98854643,-0.64780408
1314362449.06862211,0.27467909,0.99296075,-0.64544606
1314362449.12066245,0.27279425,0.98905474,-0.64767343
1314362449.16947079,0.27519184,0.99234968,-0.64836532
1314362449.22147942,0.27343649,0.99160093,-0.64805824
1314362449.26949644,0.27464843,0.98975986,-0.64408141
1314362449.30946827,0.27372953,0.99042398,-0.64561605
1314362449.36867094,0.27043352,0.99023229,-0.64808697
1314362449.42144608,0.27220422,0.99029231,-0.64368945
1314362449.46965599,0.27648231,0.99382758,-0.64494586
1314362449.52166605,0.27381590,0.98865020,-0.64667177
1314362449.56946516,0.27713770,0.99288529,-0.64100784
1314362449.62067342,0.27298680,0.99143624,-0.64418983
1314362449.66951823,0.27548704,0.99203861,-0.64351314
1314362449.72046924,0.27371225,0.99055457,-0.64588654
1314362449.76952052,0.27591142,0.99162489,-0.64106917
1314362449.81758833,0.27312917,0.98977900,-0.64430344
1314362449.86848116,0.27714685,0.99275625,-0.64087212
1314362449.92159152,0.27524585,0.98997420,-0.64096093
1314362449.96945214,0.27715799,0.99511927,-0.64719868
1314362450.01759815,0.27185529,0.99155784,-0.64251083
1314362450.06947923,0.27695039,0.99108982,-0.63979703
1314362450.12146854,0.27256456,0.99180007,-0.64206904
1314362450.16951704,0.28005221,0.99526435,-0.64005214
1314362450.22144699,0.27419469,0.99102074,-0.64237183
1314362450.26962090,0.27753660,0.99260372,-0.63896906
1314362450.32059908,0.27486634,0.99099100,-0.64031923
1314362450.36947918,0.28084186,0.99460030,-0.63839066
1314362450.42157459,0.27497026,0.99315953,-0.64059800
1314362450.46958399,0.27549037,0.99491602,-0.63856751
1314362450.52053952,0.27218091,0.99037462,-0.63952982
1314362450.56862903,0.27901933,0.99320328,-0.63700861
1314362450.62144828,0.27413079,0.99223167,-0.63647789
1314362450.66862035,0.27625054,0.99489397,-0.63731527
1314362450.72163248,0.27594197,0.99095798,-0.63837749
1314362450.76948714,0.27654573,0.99641424,-0.63677269
1314362450.82063007,0.27464059,0.99118996,-0.63496399
1314362450.86948061,0.27720404,0.99305302,-0.63308489
1314362450.92064691,0.27175066,0.99186087,-0.63513571
1314362450.96862316,0.27999336,0.99583793,-0.63415307
1314362451.01786923,0.27387440,0.99207938,-0.63394088
1314362451.06857800,0.27619368,0.99419439,-0.63154078
1314362451.11756682,0.27244172,0.99246383,-0.63268399
1314362451.16959119,0.27639309,0.99446017,-0.63273948
1314362451.22164822,0.27703825,0.99367177,-0.63121969
1314362451.26850677,0.27447921,0.99557686,-0.62802547
1314362451.31755280,0.27205408,0.99165082,-0.62786746
1314362451.36865067,0.27644834,0.99603015,-0.62482768
1314362451.42146564,0.27089921,0.99266785,-0.62646502
1314362451.46962976,0.27743033,0.99743986,-0.62652677
1314362451.52059650,0.27357644,0.99043614,-0.62320620
1314362451.56946802,0.27527824,0.99794108,-0.62356704
1314362451.62056184,0.27252328,0.99082202,-0.62246436
1314362451.66948795,0.27443457,0.99446839,-0.61983085
1314362451.70945573,0.27218154,0.99231601,-0.61887074
1314362451.76859021,0.27297124,0.99358582,-0.61923742
1314362451.82144833,0.27034080,0.99412918,-0.61966175
1314362451.86861992,0.27319616,0.99382204,-0.61774951
1314362451.92163944,0.26915312,0.99016386,-0.61714983
1314362451.96949244,0.27551228,0.99519867,-0.61776048
1314362452.02062154,0.27137160,0.99359566,-0.61852431
1314362452.06955910,0.27379459,0.99390882,-0.61462802
1314362452.12059069,0.27075487,0.99193555,-0.61760771
1314362452.16862273,0.27422199,0.99402839,-0.61433578
1314362452.21805882,0.27061871,0.99394870,-0.61508006
1314362452.26864529,0.27282056,0.99035853,-0.61532879
1314362452.32064414,0.27007312,0.99140877,-0.61536092
1314362452.37025023,0.27253273,0.99395281,-0.61738604
1314362452.41750693,0.26971990,0.99094254,-0.61900240
1314362452.46850419,0.27541953,0.99264610,-0.61734396
1314362452.51746464,0.26798284,0.98902005,-0.61626905
1314362452.56854272,0.27255413,0.99433059,-0.61698490
1314362452.61750078,0.27013102,0.99014956,-0.61682487
1314362452.66858387,0.27191600,0.99229270,-0.61646944
1314362452.72062945,0.26927212,0.99031776,-0.61969477
1314362452.76821041,0.27159035,0.99256021,-0.61729574
1314362452.82151604,0.27022779,0.99219221,-0.61723733
1314362452.86951494,0.27022162,0.99092060,-0.61749661
1314362452.91266274,0.27059194,0.98911715,-0.61611927
1314362452.96848440,0.26740697,0.99122000,-0.61873519
1314362453.01745534,0.26686347,0.98944330,-0.61888748
1314362453.06950402,0.27040073,0.99078375,-0.61681402
1314362453.12053299,0.26769584,0.98943216,-0.61870515
1314362453.16950440,0.27041796,0.99238193,-0.62313455
1314362453.22051048,0.26743329,0.98983955,-0.62073702
1314362453.26951718,0.27152610,0.99040878,-0.61862570
1314362453.30949998,0.26529926,0.98784107,-0.62232178
1314362453.36848068,0.26961499,0.99073279,-0.62303424
1314362453.41919756,0.26783615,0.98884296,-0.62325692
1314362453.46848130,0.26844889,0.99203122,-0.62405097
1314362453.52147436,0.26618960,0.98758900,-0.62347674
1314362453.57594252,0.26871744,0.99075639,-0.62429440
1314362453.61748123,0.26600856,0.98991472,-0.62618953
1314362453.66951275,0.27150357,0.99086899,-0.62574542
1314362453.70849514,0.26792958,0.98800826,-0.62861502
1314362453.76962066,0.26573464,0.98673570,-0.62658423
1314362453.81746578,0.26543853,0.98829508,-0.62902939
1314362453.86948991,0.26889339,0.99079680,-0.62817764
1314362453.92044854,0.26739618,0.98587245,-0.63091195
1314362453.96848106,0.27018663,0.99239773,-0.63603544
1314362454.02047992,0.26632360,0.98643875,-0.63500541
1314362454.06851125,0.27023131,0.98892790,-0.63345617
1314362454.11752009,0.26737067,0.98773336,-0.63790810
1314362454.16953135,0.27174550,0.99137747,-0.63754880
1314362454.21744251,0.26920635,0.98838890,-0.64143169
1314362454.26855898,0.27123153,0.99089259,-0.63931996
1314362454.32058477,0.26780814,0.98739129,-0.64204186
1314362454.36948371,0.27210447,0.98965031,-0.64315337
1314362454.42048264,0.27117738,0.98929775,-0.64494938
1314362454.46949673,0.27241796,0.99274385,-0.64664888
1314362454.51749682,0.27161175,0.98648852,-0.64490324
1314362454.56854320,0.27645373,0.99139005,-0.64345253
1314362454.61744380,0.27025023,0.98792690,-0.64687204
1314362454.66850996,0.27192128,0.99019450,-0.64612144
1314362454.72053051,0.27226508,0.98946381,-0.64958644
1314362454.76948214,0.27514702,0.99276477,-0.65132439
1314362454.82047629,0.27237678,0.98643708,-0.65264493
1314362454.86851335,0.27479374,0.99036467,-0.65293771
1314362454.92049026,0.27232802,0.98848289,-0.65320003
1314362454.96958542,0.27533415,0.99242121,-0.65506983
1314362455.01746941,0.27266693,0.98951036,-0.65426219
1314362455.06949091,0.27290207,0.99142396,-0.65466571
1314362455.12057614,0.27480981,0.98720431,-0.65532947
1314362455.17055559,0.27728075,0.99150342,-0.65468216
1314362455.21744108,0.27232802,0.99122989,-0.65966439
1314362455.26950645,0.27817103,0.99023306,-0.65596372
1314362455.31740046,0.27102032,0.98815382,-0.65676337
1314362455.36955500,0.27564451,0.99202937,-0.65451205
1314362455.41745520,0.27090138,0.98901814,-0.65409184
1314362455.46953130,0.27436137,0.99098510,-0.65095359
1314362455.51755261,0.27003649,0.98822242,-0.65037692
1314362455.56950188,0.27539834,0.99263883,-0.65171164
1314362455.62148857,0.26960820,0.98751980,-0.64395261
1314362455.66852665,0.27265707,0.99027973,-0.64299196
1314362455.71750617,0.26736546,0.98806304,-0.64475733
1314362455.76854968,0.27083048,0.98939264,-0.64161402
1314362455.81746173,0.26810119,0.98621440,-0.63959974
1314362455.86853862,0.26992902,0.99013126,-0.63831544
1314362455.91752982,0.26761192,0.98796648,-0.63615072
1314362455.96952057,0.27050105,0.99149597,-0.63547355
1314362456.02051544,0.26583120,0.98938632,-0.63599563
1314362456.06950545,0.27054885,0.99059582,-0.63479280
1314362456.10947204,0.26694128,0.98603743,-0.63389277
1314362456.16855240,0.26668501,0.98883730,-0.63325739
1314362456.21748447,0.26665035,0.98899591,-0.63607967
1314362456.26941133,0.26840383,0.99020475,-0.63182604
1314362456.31754875,0.26704213,0.98767281,-0.63201982
1314362456.36946535,0.27167132,0.99172407,-0.63419956
1314362456.41754627,0.26491740,0.98666608,-0.63106090
1314362456.46948695,0.27003601,0.99018866,-0.63200021
1314362456.51745844,0.26602250,0.98690671,-0.63086468
1314362456.56950235,0.26771700,0.99123096,-0.63173908
1314362456.61746097,0.26546577,0.98566633,-0.63343817
1314362456.66940546,0.26934001,0.98941004,-0.63002086
1314362456.72151685,0.26550266,0.98932576,-0.63010740
1314362456.76950383,0.26919669,0.99129725,-0.62762690
1314362456.82049942,0.26714909,0.98945892,-0.63229555
1314362456.86948085,0.26792049,0.98915553,-0.62862420
1314362456.91751814,0.26491746,0.98676866,-0.62877953
1314362456.96952534,0.26891771,0.98967135,-0.63018143
1314362457.01752687,0.26347142,0.98758686,-0.63222516
1314362457.06853104,0.27062529,0.99040455,-0.62901449
1314362457.12054729,0.26532862,0.98790956,-0.62863010
1314362457.17017889,0.26876524,0.99351895,-0.63223279
1314362457.21746230,0.26545882,0.98676383,-0.62888247
1314362457.26949883,0.27018774,0.99054146,-0.62944347
1314362457.31747317,0.26472616,0.98650128,-0.62744612
1314362457.36952376,0.26959559,0.99193144,-0.62774289
1314362457.41753793,0.26427642,0.98806536,-0.63016868
1314362457.46848297,0.26919460,0.99144965,-0.62991035
1314362457.51748180,0.26335755,0.98689812,-0.62739378
1314362457.56948233,0.26842117,0.99017668,-0.62927419
1314362457.62050605,0.26615286,0.98881567,-0.63073725
1314362457.66847038,0.26927105,0.99217403,-0.62628675
1314362457.70949769,0.26571020,0.98765606,-0.62914318
1314362457.76947641,0.26567662,0.98687410,-0.62752831
1314362457.81745028,0.26371157,0.98692918,-0.63059545
1314362457.86847281,0.26793671,0.98904979,-0.63063610
1314362457.92134714,0.26363423,0.98562175,-0.62750250
1314362457.96150374,0.26898304,0.99362922,-0.63087857
1314362458.02046156,0.26877636,0.99028540,-0.62791204
1314362458.06946206,0.27023357,0.98999888,-0.62648338
1314362458.12123680,0.26340836,0.98653126,-0.62886477
1314362458.16846347,0.27004629,0.99105299,-0.62945551
1314362458.21752286,0.26296264,0.98758543,-0.63158327
1314362458.26947284,0.26818809,0.98902637,-0.62874198
1314362458.32046366,0.26453683,0.98587644,-0.62839204
1314362458.36948156,0.27028129,0.98991185,-0.63023883
1314362458.42046094,0.26743603,0.98894429,-0.63214087
1314362458.46946931,0.26916814,0.99170929,-0.63031656
1314362458.51732683,0.26406065,0.98678446,-0.62936604
1314362458.56947899,0.26839870,0.98890817,-0.62980294
1314362458.61754084,0.26463765,0.98832488,-0.63095522
1314362458.66853738,0.26931164,0.99104542,-0.62802112
1314362458.72152328,0.26617214,0.98741186,-0.63059139
1314362458.76950288,0.27022737,0.99055856,-0.63105226
1314362458.81752753,0.26613033,0.98652887,-0.63139260
1314362458.86852193,0.26844543,0.98803300,-0.63140458
1314362458.90946674,0.26528677,0.98600835,-0.62955797
1314362458.96858478,0.26489308,0.98870724,-0.63121188
1314362459.01756835,0.26583531,0.98806334,-0.63155538
1314362459.06941295,0.26951101,0.99029297,-0.62934643
1314362459.11745691,0.26399547,0.98771262,-0.63259864
1314362459.16953039,0.27202144,0.99063879,-0.62853295
1314362459.21840310,0.26750615,0.98819190,-0.63333941
1314362459.26849508,0.26749313,0.99096984,-0.63094461
1314362459.31732011,0.26530093,0.98605508,-0.63385332
1314362459.36858797,0.27133855,0.98911870,-0.62869519
1314362459.41748977,0.26715717,0.98843914,-0.63228744
1314362459.46848416,0.26912928,0.98932308,-0.63352275
1314362459.51731944,0.26545560,0.98500723,-0.63142014
1314362459.56946611,0.27194819,0.99350244,-0.63392842
1314362459.62329626,0.26442489,0.98757720,-0.63230437
1314362459.67349887,0.27018654,0.98852992,-0.63197911
1314362459.70928955,0.26468846,0.98795801,-0.63242626
1314362459.76852751,0.26642144,0.98845649,-0.63313550
1314362459.81747484,0.26575702,0.98973298,-0.63264638
1314362459.86952591,0.27003708,0.99107945,-0.63187259
1314362459.91840935,0.26393437,0.98721516,-0.63367236
1314362459.96962690,0.27125111,0.99183303,-0.63207674
1314362460.02060413,0.26782164,0.98818088,-0.63264990
1314362460.06852841,0.26779726,0.98920381,-0.63292748
1314362460.10938001,0.26605090,0.98720521,-0.63489264
1314362460.16846848,0.26708701,0.99010724,-0.63324368
1314362460.21755266,0.26529586,0.98760808,-0.63601315
1314362460.26949930,0.26949266,0.99044847,-0.63189930
1314362460.31738687,0.26539454,0.98644370,-0.63452208
1314362460.36949039,0.26948246,0.99253631,-0.63634562
1314362460.42052889,0.26454484,0.98658544,-0.63497490
1314362460.46851325,0.27147076,0.99046499,-0.63540989
1314362460.50848269,0.26530698,0.98529023,-0.63384724
1314362460.56952453,0.26559708,0.98734528,-0.63559109
1314362460.61749196,0.26700237,0.98653483,-0.63281906
1314362460.66860819,0.26892990,0.99007553,-0.63219744
1314362460.71752644,0.26447466,0.98723525,-0.63605773
1314362460.76948190,0.26987219,0.99136555,-0.63456917
1314362460.82048178,0.26840359,0.98796314,-0.63664204
1314362460.86947513,0.26867130,0.98987049,-0.63650662
1314362460.90947032,0.26563168,0.98708409,-0.63505018
1314362460.96925879,0.26692408,0.98912019,-0.63606483
1314362461.01757526,0.26667586,0.98896629,-0.63339311
1314362461.06935430,0.26741973,0.98986310,-0.63456511
1314362461.11759973,0.26623917,0.98693931,-0.63407433
1314362461.17351961,0.27032098,0.99369419,-0.63818532
1314362461.21728516,0.26606417,0.98850018,-0.63678098
1314362461.26950240,0.27017018,0.98751479,-0.63237518
1314362461.31730199,0.26388237,0.98557049,-0.63473696
1314362461.36860418,0.26877218,0.99150580,-0.63463366
1314362461.41746235,0.26626563,0.98667967,-0.63366812
1314362461.46859145,0.26922700,0.99022007,-0.63406080
1314362461.51752734,0.26589826,0.98708248,-0.63516903
1314362461.56949854,0.27204266,0.98979318,-0.63282120
1314362461.62058926,0.26606014,0.98901010,-0.63678509
1314362461.66948581,0.26824403,0.99087173,-0.63439089
1314362461.71348763,0.26551065,0.98901647,-0.63681680
1314362461.76949978,0.26435962,0.98555321,-0.63363534
1314362461.81746459,0.26408893,0.98687786,-0.63795674
1314362461.87246990,0.26908249,0.99009573,-0.63420248
1314362461.92052817,0.26534569,0.98645306,-0.63533038
1314362461.97104883,0.27145964,0.99278289,-0.63757581
1314362462.01747131,0.26510653,0.98606759,-0.63480431
1314362462.06949878,0.26903564,0.98893446,-0.63285398
1314362462.12053204,0.26506278,0.98645777,-0.63548100
1314362462.16860366,0.27102000,0.99032521,-0.63382393
1314362462.21747422,0.26654857,0.98860884,-0.63554567
1314362462.26951027,0.27097106,0.98931628,-0.63475889
1314362462.31735182,0.26774013,0.98809391,-0.63627851
1314362462.36802697,0.26786539,0.98870635,-0.63412797
1314362462.42059970,0.26637453,0.98810834,-0.63622320
1314362462.46950102,0.27059260,0.99020565,-0.63411617
1314362462.50948715,0.26276606,0.98571390,-0.63507092
1314362462.56950712,0.26494971,0.98624957,-0.63964754
1314362462.61746883,0.26459169,0.98774666,-0.63632333
1314362462.66868639,0.26929215,0.99020755,-0.63298297
1314362462.71751666,0.26579744,0.98646533,-0.63691539
1314362462.76948118,0.27044201,0.99176180,-0.63641870
1314362462.82050657,0.26389152,0.98544145,-0.63460124
1314362462.86949849,0.26928490,0.98804516,-0.63336992
1314362462.92088914,0.26437485,0.98649067,-0.63780308
1314362462.96947742,0.26920453,0.98986721,-0.63674432
1314362463.01746511,0.26506683,0.98594791,-0.63547695
1314362463.06948400,0.27005017,0.99023539,-0.63629556
1314362463.11750627,0.26483899,0.98721492,-0.63455987
1314362463.16845059,0.27232239,0.98905003,-0.63508165
1314362463.21746778,0.26626253,0.98787522,-0.63810730
1314362463.26945329,0.27177587,0.98765576,-0.63523698
1314362463.31713533,0.26414379,0.98416978,-0.63511413
1314362463.36913490,0.27064145,0.99019629,-0.63330781
1314362463.41757417,0.26365843,0.98520684,-0.63622385
1314362463.46914983,0.27081531,0.98855776,-0.63516492
1314362463.51748729,0.26260835,0.98622847,-0.63535237
1314362463.57422638,0.26913324,0.98962629,-0.63795483
1314362463.62050986,0.26509833,0.98596656,-0.63722044
1314362463.66950846,0.27012643,0.98790503,-0.63305181
1314362463.71723652,0.26637959,0.98655528,-0.63406330
1314362463.76954079,0.27000642,0.98970991,-0.63481748
1314362463.81743193,0.26461202,0.98723364,-0.63604981
1314362463.86868834,0.26737282,0.98859924,-0.63549805
1314362463.91751289,0.26503935,0.98541933,-0.63372940
1314362463.96948957,0.26872623,0.98818064,-0.63353741
1314362464.01721978,0.26678261,0.98861343,-0.63620341
1314362464.06949210,0.26931822,0.98658556,-0.63980079
1314362464.10949230,0.26640382,0.98532724,-0.63834852
1314362464.17021012,0.26481438,0.98599625,-0.63965344
1314362464.21746182,0.26711616,0.98610276,-0.64005846
1314362464.26853633,0.26944545,0.98684043,-0.63992959
1314362464.32116985,0.26360735,0.98424774,-0.64172363
1314362464.36150956,0.26956654,0.98958898,-0.64665544
1314362464.41762185,0.26881349,0.98790556,-0.64346439
1314362464.46952915,0.27088737,0.98826092,-0.64307892
1314362464.51719093,0.26404890,0.98441398,-0.64572674
1314362464.56853247,0.26948705,0.98650002,-0.64381772
1314362464.61747527,0.26508388,0.98540705,-0.64433205
1314362464.66048813,0.27003148,0.98713100,-0.64379108
1314362464.72148895,0.27021873,0.98882395,-0.64728332
1314362464.76970863,0.27014849,0.98662418,-0.64418322
1314362464.81746149,0.26587346,0.98555607,-0.64710671
1314362464.86949492,0.26906067,0.98625302,-0.64410895
1314362464.91746879,0.26519778,0.98426437,-0.64485389
1314362464.96922684,0.27089038,0.98970979,-0.64738542
1314362465.01744652,0.26256001,0.98254281,-0.64794648
1314362465.06875300,0.26849678,0.98488677,-0.64681613
1314362465.11722279,0.26550081,0.98343891,-0.65127391
1314362465.16949463,0.27235961,0.98768848,-0.65050739
1314362465.21760988,0.26538289,0.98509145,-0.65075612
1314362465.26956344,0.27016044,0.98387110,-0.64886045
1314362465.32154083,0.26519564,0.98522985,-0.65157348
1314362465.36858988,0.26877356,0.98645997,-0.65110779
1314362465.41744757,0.26675847,0.98176581,-0.65105456
1314362465.46922016,0.26926792,0.98600441,-0.65657985
1314362465.51717472,0.26728857,0.98387372,-0.65788627
1314362465.56947756,0.26938888,0.98396945,-0.65709460
1314362465.62052989,0.26752469,0.98555726,-0.66057014
1314362465.66845918,0.26982033,0.98449475,-0.65895307
1314362465.70948434,0.26627809,0.98389429,-0.65875018
1314362465.76963520,0.26720601,0.98198032,-0.65948772
1314362465.82058811,0.26586503,0.98412913,-0.65649360
1314362465.86954141,0.27024892,0.98662591,-0.65612519
